Change the Weather History Date:

Tuesday, February 18, 2014

  Actual Average Record
Temperature  
Mean Temperature 37 °F 32 °F  
Max Temperature 48 °F 40 °F 48 °F (2014)
Min Temperature 25 °F 24 °F 4 °F (2015)
Degree Days  
Heating Degree Days 28 33  
Month to date heating degree days 892 637  
Since 1 July heating degree days 4453 3944  
Cooling Degree Days 0 0  
Month to date cooling degree days 0 0  
Year to date cooling degree days 0 0  
Moisture  
Dew Point 29 °F    
Average Humidity 66    
Maximum Humidity 85    
Minimum Humidity 46    
Precipitation  
Precipitation 0.00 in 0.07 in 0.00 in (2015)
Month to date precipitation T 1.22  
Year to date precipitation 0.71 2.96  
Sea Level Pressure  
Sea Level Pressure 29.88 in    
Wind  
Wind Speed 13 mph (SSW)    
Max Wind Speed 29 mph    
Max Gust Speed 37 mph    
Visibility 10 miles    
Events      
T = Trace of Precipitation, MM = Missing Value Source: NWS Daily Summary

Daily Weather History Graph

Daily Weather History Graph

Search for Another Location

Airport or City:

Trip Planner

Search our weather history database for the weather conditions in past years. The results will help you decide how hot, cold, wet, or windy it might be!

Date:

Astronomy

Feb. 18, 2014 Rise Set
Actual Time 6:44 AM CST 5:35 PM CST
Civil Twilight 6:16 AM CST 6:02 PM CST
Nautical Twilight 5:45 AM CST 6:34 PM CST
Astronomical Twilight 5:13 AM CST 7:05 PM CST
Moon 9:27 PM CST (2/18) 8:16 AM CST (2/18)
Length of Visible Light 11h 46m
Length of Day
10h 51m
Waning Gibbous, 87% of the Moon is Illuminated
Feb 18
Waning Gibbous
Feb 22
Last Quarter
Mar 1
New
Mar 8
First Quarter
Mar 16
Full

Hourly Weather History & Observations

Time (CST) Temp. Windchill Dew Point Humidity Pressure Visibility Wind Dir Wind Speed Gust Speed Precip Events Conditions
12:54 AM 36.0 °F 29.0 °F 28.9 °F 76% 29.98 in 10.0 mi WSW 9.2 mph - N/A   Clear
1:54 AM 34.0 °F 26.6 °F 28.0 °F 79% 30.00 in 10.0 mi WSW 9.2 mph - N/A   Clear
2:54 AM 32.0 °F 23.6 °F 27.0 °F 82% 30.02 in 10.0 mi SW 10.4 mph - N/A   Clear
3:54 AM 32.0 °F 23.6 °F 26.1 °F 79% 30.03 in 10.0 mi SW 10.4 mph - N/A   Clear
4:54 AM 28.9 °F 25.2 °F 25.0 °F 85% 30.03 in 10.0 mi SSW 3.5 mph - N/A   Clear
5:54 AM 28.9 °F 22.8 °F 24.1 °F 82% 30.03 in 10.0 mi South 5.8 mph - N/A   Clear
6:54 AM 26.1 °F 18.4 °F 21.0 °F 81% 30.02 in 10.0 mi South 6.9 mph - N/A   Clear
7:54 AM 32.0 °F 23.6 °F 25.0 °F 75% 30.01 in 10.0 mi South 10.4 mph - N/A   Clear
8:54 AM 34.0 °F 26.0 °F 26.1 °F 73% 29.99 in 10.0 mi South 10.4 mph - 0.04 in   Clear
9:54 AM 35.1 °F 27.9 °F 28.0 °F 76% 29.98 in 10.0 mi South 9.2 mph - 0.16 in   Clear
10:54 AM 39.0 °F 31.4 °F 30.0 °F 70% 29.96 in 10.0 mi South 12.7 mph - 0.16 in   Clear
11:54 AM 43.0 °F 34.8 °F 28.9 °F 58% 29.91 in 10.0 mi South 18.4 mph - 0.05 in   Clear
12:54 PM 45.0 °F 37.6 °F 28.9 °F 53% 29.86 in 10.0 mi South 17.3 mph - N/A   Clear
1:54 PM 45.0 °F 37.1 °F 28.9 °F 53% 29.81 in 10.0 mi South 19.6 mph - 0.13 in   Clear
2:54 PM 48.0 °F - 28.0 °F 46% 29.79 in 10.0 mi South 23.0 mph 36.8 mph N/A   Clear
3:54 PM 46.9 °F - 28.9 °F 50% 29.78 in 10.0 mi SSW 21.9 mph 31.1 mph N/A   Clear
4:54 PM 45.0 °F 37.6 °F 30.0 °F 56% 29.76 in 10.0 mi South 17.3 mph - N/A   Clear
5:54 PM 44.1 °F 36.5 °F 28.9 °F 55% 29.76 in 10.0 mi South 17.3 mph - N/A   Clear
6:54 PM 43.0 °F 35.1 °F 30.0 °F 60% 29.77 in 10.0 mi South 17.3 mph - N/A   Clear
7:54 PM 42.1 °F 34.2 °F 32.0 °F 67% 29.76 in 10.0 mi South 16.1 mph - N/A   Clear
8:54 PM 43.0 °F 35.1 °F 34.0 °F 71% 29.76 in 10.0 mi SSW 17.3 mph - N/A   Clear
9:54 PM 43.0 °F 35.4 °F 35.1 °F 74% 29.75 in 10.0 mi SSW 16.1 mph - N/A   Clear
10:54 PM 42.1 °F 35.2 °F 34.0 °F 73% 29.74 in 10.0 mi SW 12.7 mph - N/A   Clear
11:54 PM 44.1 °F 39.5 °F 33.1 °F 65% 29.73 in 10.0 mi WSW 8.1 mph - N/A   Clear